Regional Weather Roundup
Issued by NWS

Home | Current Version | Previous Version | Text Only | Print | Product List | Glossary Off
Versions: 1 2 3 4 5 6 7 8 9 10 11 12 13 14 15 16 17 18 19 20 21 22 23 24 25 26 27 28 29 30 31 32 33 34 35 36 37 38 39 40 41 42 43 44 45 46 47 48 49 50

000
ASUS44 KOUN 270700
RWROK

WEATHER ROUNDUP FOR OKLAHOMA
NATIONAL WEATHER SERVICE NORMAN OK
200 AM CDT FRI MAR 27 2015

NOTE: "FAIR" INDICATES FEW OR NO CLOUDS BELOW 12,000 FEET WITH NO
      SIGNIFICANT WEATHER AND/OR OBSTRUCTIONS TO VISIBILITY.

OKZ001>007-009>012-014-015-017-270800-
NORTHWEST OKLAHOMA AND THE PANHANDLE

CITY           SKY/WX    TMP DP  RH WIND       PRES   REMARKS
GAGE           CLOUDY    49  33  54 W3        30.13S
GUYMON         MOCLDY    47  31  53 NW7       30.16F
$$

OKZ016-021>023-033>039-044-045-270800-
SOUTHWEST OKLAHOMA

CITY           SKY/WX    TMP DP  RH WIND       PRES   REMARKS
LAWTON/REGL    CLEAR     42  35  76 W5        30.11F
CLINTON        PTCLDY    49  30  48 W7        30.13S
HOBART         CLEAR     42  32  67 W3        30.12S
$$

OKZ018>020-024>031-270800-
CENTRAL OKLAHOMA

CITY           SKY/WX    TMP DP  RH WIND       PRES   REMARKS
OKLAHOMA CITY  CLOUDY    47  34  60 SW9       30.07F
OKC/WILEY POST CLOUDY    50  34  54 SW10      30.07F
STILLWATER     CLOUDY    50  32  50 VRB6      30.05F
$$

OKZ008-013-054>072-270800-
NORTHEAST OKLAHOMA

CITY           SKY/WX    TMP DP  RH WIND       PRES   REMARKS
TULSA          PTCLDY    47  33  58 NE10      30.07R
TULSA/JONES    PTCLDY    40  35  83 CALM      30.06S
PONCA CITY     MOCLDY    47  31  53 CALM      30.04F
BARTLESVILLE   CLEAR     38  32  79 CALM      30.09S
MUSKOGEE       CLEAR     43  33  68 S3        30.07R
$$

OKZ032-040>043-046>053-073>077-270800-
SOUTH CENTRAL/SOUTHEAST OKLAHOMA

CITY           SKY/WX    TMP DP  RH WIND       PRES   REMARKS
MCALESTER      PTCLDY    40  35  83 S5        30.07S
$$



USA.gov is the U.S. government's official web portal to all federal, state and local government web resources and services.